Terminal Aerodrome Forecast
Issued by NWS Wichita, KS

Home | Current Version | Previous Version | Text Only | Print | Product List | Glossary On
Versions: 1 2 3 4 5 6 7 8 9 10 11 12 13 14
202
FTUS43 KICT 021338 AAA
TAFICT
TAF AMD
KICT 021338Z 0214/0312 34010KT P6SM BKN040
     FM022100 34007KT P6SM SCT050
     FM030300 19005KT P6SM SCT250=

USA.gov is the U.S. government's official web portal to all federal, state and local government web resources and services.